Lid_Strength_Index
8 8 7 8 9 7 12 12 13 12 11 8 7 7 6 6 6 5 5 4 3 3 2 2 2 1 1 1 1 1 1 0
8 8 7 7 6 10 10 15 16 13 13 11 9 9 8 7 6 5 4 4 4 3 2 2 1 1 1 1 1 1 0 0
8 8 8 8 8 9 9 11 12 13 12 8 9 8 8 7 6 5 5 4 3 3 2 2 1 1 1 1 1 1 1 0
9 7 7 8 8 7 9 12 11 12 12 8 7 7 6 6 6 5 5 4 4 3 3 2 2 1 1 1 1 1 0 0
9 8 7 8 8 10 8 9 12 12 12 8 7 7 7 6 6 5 5 4 4 4 3 3 2 2 1 1 1 1 0 1
10 10 8 9 9 8 9 10 11 10 12 10 8 8 7 7 6 5 5 5 4 4 3 3 2 2 1 1 1 1 1 1
9 8 9 8 9 8 9 9 10 11 10 9 7 8 7 6 6 6 5 5 4 4 4 3 3 2 2 1 1 1 1 1
9 9 8 10 9 9 9 9 9 9 10 7 7 6 6 6 6 6 6 5 4 4 3 3 3 2 2 2 1 1 1 1
10 9 8 11 9 9 9 8 9 10 8 7 8 7 6 6 5 5 5 4 4 4 3 3 2 2 2 2 1 1 1 1
9 9 13 8 7 7 8 8 7 8 7 7 6 6 5 4 5 5 4 4 3 3 3 2 2 1 1 1 1 1 1 1
10 10 10 9 8 9 9 9 7 7 7 7 6 5 6 4 4 4 3 3 3 2 2 2 2 1 1 1 1 1 2 1
10 11 13 9 7 6 6 10 6 6 7 7 6 8 7 4 3 3 3 2 2 2 2 2 1 1 1 2 2 2 1 1
10 10 9 7 6 6 11 10 6 6 6 6 7 5 4 3 3 3 2 2 2 2 2 2 1 1 2 2 2 1 0 0
10 11 12 6 6 9 7 6 5 5 5 6 5 4 4 4 3 3 3 3 2 2 2 1 1 1 2 2 1 0 0 1
9 9 6 5 6 4 5 5 5 5 4 4 5 4 4 4 3 3 3 2 2 2 2 1 1 1 2 1 1 1 1 1
9 7 6 5 4 4 4 4 4 3 4 4 4 3 4 3 3 3 2 2 2 2 2 2 1 1 1 1 0 1 1 1
8 7 6 5 4 4 4 3 3 3 3 3 3 3 3 3 3 3 2 2 2 2 2 2 1 1 1 0 1 1 1 1
8 6 6 6 4 3 4 4 3 3 3 3 3 3 3 3 2 2 2 2 2 2 2 2 1 1 1 0 0 1 2 1
5 4 4 4 3 3 3 3 3 3 3 3 3 3 3 3 2 3 2 2 2 2 2 2 1 1 1 0 0 1 2 1